| time (UTC) | temp C | wind direction | speed KPH | gust KPH | rain 1hr cm | rain 24hr cm | rain mn cm | humidity % | barometer mb |
| 20260903200228 | 17 | 252 | 6.4 | 0.0 | 0.00 | 0.00 | 0.08 | 72 | 1008.9 |
| 20260903195227 | 17 | 242 | 0.0 | 0.0 | 0.00 | 0.00 | 0.08 | 75 | 1008.9 |
| 20260903194225 | 17 | 180 | 6.4 | 0.0 | 0.00 | 0.00 | 0.08 | 75 | 1008.9 |
| 20260903192223 | 16 | 279 | 3.2 | 0.0 | 0.00 | 0.00 | 0.08 | 77 | 1009.0 |
| 20260903191222 | 16 | 194 | 3.2 | 0.0 | 0.00 | 0.00 | 0.08 | 79 | 1009.1 |
| 20260903190221 | 16 | 229 | 0.0 | 0.0 | 0.00 | 0.00 | 0.08 | 84 | 1009.1 |
| 20260903185220 | 15 | 217 | 8.0 | 0.0 | 0.00 | 0.00 | 0.08 | 84 | 1009.1 |
| 20260903184219 | 15 | 265 | 0.0 | 0.0 | 0.00 | 0.00 | 0.08 | 84 | 1009.2 |
| 20260903182218 | 16 | 219 | 4.8 | 0.0 | 0.00 | 0.00 | 0.08 | 84 | 1009.1 |
| 20260903180215 | 16 | 209 | 0.0 | 0.0 | 0.00 | 0.00 | 0.08 | 86 | 1009.0 |
| 20260903175214 | 16 | 229 | 0.0 | 0.0 | 0.00 | 0.00 | 0.08 | 84 | 1009.0 |
| 20260903174213 | 17 | 180 | 0.0 | 0.0 | 0.00 | 0.00 | 0.08 | 82 | 1009.0 |
| 20260903172211 | 16 | 180 | 0.0 | 0.0 | 0.00 | 0.00 | 0.08 | 92 | 1009.0 |
| 20260903170209 | 15 | 192 | 0.0 | 0.0 | 0.00 | 0.00 | 0.08 | 94 | 1009.1 |
| 20260903165208 | 14 | 209 | 0.0 | 0.0 | 0.00 | 0.00 | 0.08 | 94 | 1009.3 |
| 20260903164207 | 13 | 209 | 0.0 | 0.0 | 0.00 | 0.00 | 0.08 | 94 | 1009.4 |
| 20260903163206 | 13 | 209 | 0.0 | 0.0 | 0.00 | 0.00 | 0.08 | 94 | 1009.4 |
| 20260903162205 | 13 | 209 | 0.0 | 0.0 | 0.00 | 0.00 | 0.08 | 93 | 1009.3 |
| 20260903161204 | 13 | 209 | 0.0 | 0.0 | 0.00 | 0.00 | 0.08 | 93 | 1009.3 |
| 20260903160203 | 13 | 209 | 0.0 | 0.0 | 0.00 | 0.00 | 0.05 | 93 | 1009.4 |
| 20260903155202 | 13 | 221 | 0.0 | 0.0 | 0.00 | 0.00 | 0.03 | 93 | 1009.3 |
| 20260903154201 | 13 | 196 | 0.0 | 0.0 | 0.00 | 0.00 | 0.03 | 93 | 1009.3 |
| 20260903153200 | 13 | 194 | 6.4 | 0.0 | 0.00 | 0.00 | 1.04 | 93 | 1009.2 |
| 20260903152159 | 12 | 192 | 0.0 | 0.0 | 0.00 | 0.00 | 1.04 | 93 | 1009.2 |
| 20260903145156 | 12 | 223 | 4.8 | 0.0 | 0.00 | 0.00 | 0.99 | 93 | 1009.0 |
| 20260903144155 | 12 | 198 | 1.6 | 0.0 | 0.00 | 0.00 | 0.97 | 93 | 1009.0 |
| 20260903143154 | 12 | 205 | 0.0 | 0.0 | 0.00 | 0.00 | 0.94 | 93 | 1008.9 |
| 20260903142153 | 12 | 194 | 0.0 | 0.0 | 0.00 | 0.00 | 0.91 | 93 | 1008.8 |
| 20260903135150 | 12 | 184 | 0.0 | 0.0 | 0.00 | 0.00 | 0.86 | 92 | 1008.6 |
| 20260903133148 | 12 | 200 | 0.0 | 0.0 | 0.00 | 0.00 | 0.84 | 92 | 1008.6 |
| 20260903132147 | 12 | 200 | 0.0 | 0.0 | 0.00 | 0.00 | 0.79 | 91 | 1008.5 |
| 20260903131146 | 12 | 199 | 0.0 | 0.0 | 0.00 | 0.00 | 0.76 | 91 | 1008.5 |
| 20260903130145 | 12 | 199 | 0.0 | 0.0 | 0.00 | 0.00 | 0.76 | 90 | 1008.5 |
| 20260903124143 | 12 | 199 | 0.0 | 0.0 | 0.00 | 0.00 | 0.71 | 89 | 1008.6 |
| 20260903123142 | 12 | 206 | 0.0 | 0.0 | 0.00 | 0.00 | 0.71 | 90 | 1008.4 |
| 20260903122141 | 12 | 197 | 0.0 | 0.0 | 0.00 | 0.00 | 0.71 | 90 | 1008.5 |
| 20260903121140 | 12 | 188 | 0.0 | 0.0 | 0.00 | 0.00 | 0.71 | 90 | 1008.5 |
| 20260903120138 | 12 | 200 | 0.0 | 0.0 | 0.00 | 0.00 | 0.71 | 90 | 1008.6 |
| 20260903115138 | 12 | 200 | 4.8 | 0.0 | 0.00 | 0.00 | 0.71 | 90 | 1008.6 |
| 20260903114137 | 12 | 221 | 0.0 | 0.0 | 0.00 | 0.00 | 0.71 | 90 | 1008.6 |
| 20260903113136 | 12 | 197 | 0.0 | 0.0 | 0.00 | 0.00 | 0.71 | 91 | 1008.5 |
| 20260903112136 | 12 | 208 | 0.0 | 0.0 | 0.00 | 0.00 | 0.71 | 91 | 1008.4 |
| 20260903111134 | 12 | 208 | 4.8 | 0.0 | 0.00 | 0.00 | 0.71 | 91 | 1008.5 |
| 20260903110133 | 12 | 217 | 4.8 | 0.0 | 0.00 | 0.00 | 0.71 | 91 | 1008.5 |
| 20260903105131 | 12 | 200 | 0.0 | 0.0 | 0.00 | 0.00 | 0.71 | 91 | 1008.5 |
| 20260903104131 | 13 | 209 | 0.0 | 0.0 | 0.00 | 0.00 | 0.71 | 92 | 1008.6 |
| 20260903103130 | 13 | 207 | 0.0 | 0.0 | 0.00 | 0.00 | 0.71 | 92 | 1008.7 |
| 20260903102129 | 12 | 188 | 0.0 | 0.0 | 0.00 | 0.00 | 0.71 | 92 | 1008.7 |
| 20260903101127 | 12 | 188 | 0.0 | 0.0 | 0.00 | 0.00 | 0.71 | 92 | 1008.5 |
| 20260903100127 | 12 | 186 | 0.0 | 0.0 | 0.00 | 0.00 | 0.71 | 92 | 1008.4 |
| 20260903095126 | 13 | 186 | 0.0 | 0.0 | 0.00 | 0.00 | 0.71 | 92 | 1008.3 |
| 20260903094124 | 13 | 186 | 0.0 | 0.0 | 0.00 | 0.00 | 0.71 | 92 | 1008.3 |
| 20260903093123 | 13 | 186 | 0.0 | 0.0 | 0.00 | 0.00 | 0.71 | 93 | 1008.4 |
| 20260903092122 | 13 | 186 | 0.0 | 0.0 | 0.00 | 0.00 | 0.71 | 93 | 1008.4 |
| 20260903090120 | 13 | 186 | 0.0 | 0.0 | 0.00 | 0.00 | 0.71 | 93 | 1008.6 |
| 20260903085119 | 13 | 186 | 0.0 | 0.0 | 0.00 | 0.00 | 0.71 | 93 | 1008.6 |
| 20260903084119 | 13 | 186 | 0.0 | 0.0 | 0.00 | 0.00 | 0.71 | 93 | 1008.7 |
| 20260903083117 | 13 | 186 | 0.0 | 0.0 | 0.00 | 0.00 | 0.69 | 92 | 1008.7 |
| 20260903081116 | 13 | 185 | 0.0 | 0.0 | 0.00 | 0.00 | 0.69 | 92 | 1008.7 |
| 20260903080115 | 13 | 198 | 0.0 | 0.0 | 0.00 | 0.00 | 0.69 | 92 | 1008.8 |
| 20260903075113 | 13 | 198 | 0.0 | 0.0 | 0.00 | 0.00 | 0.69 | 92 | 1008.8 |
| 20260903074112 | 13 | 195 | 1.6 | 0.0 | 0.00 | 0.00 | 0.69 | 92 | 1008.8 |
| 20260903073112 | 13 | 200 | 0.0 | 0.0 | 0.00 | 0.00 | 0.66 | 92 | 1008.8 |
| 20260903072111 | 13 | 209 | 0.0 | 0.0 | 0.00 | 0.00 | 0.66 | 92 | 1008.7 |
| 20260903071109 | 13 | 208 | 0.0 | 0.0 | 0.00 | 0.00 | 0.66 | 91 | 1008.7 |
| 20260903070109 | 13 | 199 | 6.4 | 0.0 | 0.00 | 0.00 | 0.66 | 91 | 1008.6 |
| 20260903064106 | 13 | 229 | 3.2 | 0.0 | 0.00 | 0.00 | 0.66 | 91 | 1008.6 |
| 20260903063105 | 13 | 244 | 9.7 | 0.0 | 0.00 | 0.00 | 0.66 | 92 | 1008.7 |
| 20260903062104 | 13 | 215 | 0.0 | 0.0 | 0.00 | 0.00 | 0.66 | 92 | 1008.6 |
| 20260903061103 | 13 | 240 | 0.0 | 0.0 | 0.00 | 0.00 | 0.66 | 92 | 1008.7 |
| 20260903055101 | 13 | 211 | 0.0 | 0.0 | 0.00 | 0.00 | 0.66 | 91 | 1008.6 |
| 20260903054101 | 13 | 230 | 0.0 | 0.0 | 0.00 | 0.00 | 0.66 | 92 | 1008.5 |
| 20260903053059 | 13 | 225 | 0.0 | 0.0 | 0.00 | 0.00 | 0.66 | 92 | 1008.6 |
| 20260903052058 | 13 | 225 | 0.0 | 0.0 | 0.00 | 0.00 | 0.66 | 92 | 1008.7 |
| 20260903051057 | 13 | 223 | 0.0 | 0.0 | 0.00 | 0.00 | 0.66 | 92 | 1008.7 |
| 20260903050056 | 13 | 223 | 0.0 | 0.0 | 0.00 | 0.00 | 0.66 | 92 | 1008.5 |
| 20260903045055 | 13 | 197 | 0.0 | 0.0 | 0.00 | 0.00 | 0.66 | 92 | 1008.5 |
| 20260903044054 | 13 | 198 | 0.0 | 0.0 | 0.00 | 0.00 | 0.66 | 92 | 1008.4 |
| 20260903042052 | 14 | 203 | 0.0 | 0.0 | 0.00 | 0.00 | 0.66 | 92 | 1008.3 |
| 20260903041051 | 14 | 200 | 0.0 | 0.0 | 0.00 | 0.00 | 0.66 | 92 | 1008.2 |
| 20260903040050 | 14 | 217 | 0.0 | 0.0 | 0.00 | 0.00 | 0.66 | 92 | 1008.0 |
| 20260903035049 | 14 | 217 | 0.0 | 0.0 | 0.00 | 0.00 | 0.66 | 92 | 1007.9 |
| 20260903033047 | 15 | 215 | 3.2 | 0.0 | 0.00 | 0.00 | 0.66 | 92 | 1007.6 |
| 20260903032046 | 15 | 196 | 0.0 | 0.0 | 0.00 | 0.00 | 0.66 | 92 | 1007.5 |
| 20260903030044 | 15 | 202 | 0.0 | 0.0 | 0.00 | 0.00 | 0.66 | 92 | 1007.4 |
| 20260903025043 | 15 | 199 | 0.0 | 0.0 | 0.00 | 0.00 | 0.66 | 92 | 1007.2 |
| 20260903024042 | 15 | 188 | 0.0 | 0.0 | 0.00 | 0.00 | 0.66 | 92 | 1007.1 |
| 20260903023041 | 15 | 186 | 0.0 | 0.0 | 0.00 | 0.00 | 0.66 | 92 | 1007.0 |
| 20260903022040 | 15 | 194 | 0.0 | 0.0 | 0.00 | 0.00 | 0.66 | 92 | 1007.1 |
| 20260903021039 | 15 | 194 | 0.0 | 0.0 | 0.00 | 0.00 | 0.66 | 92 | 1006.9 |
| 20260903014036 | 15 | 196 | 0.0 | 0.0 | 0.00 | 0.00 | 0.66 | 92 | 1006.6 |
| 20260903013035 | 15 | 196 | 0.0 | 0.0 | 0.00 | 0.00 | 0.64 | 92 | 1006.6 |
| 20260903012034 | 15 | 198 | 0.0 | 0.0 | 0.00 | 0.00 | 0.64 | 91 | 1006.5 |
| 20260903011033 | 15 | 198 | 0.0 | 0.0 | 0.00 | 0.00 | 0.64 | 91 | 1006.5 |
| 20260903005031 | 16 | 236 | 0.0 | 0.0 | 0.00 | 0.00 | 0.64 | 92 | 1006.3 |
| 20260903004030 | 16 | 212 | 0.0 | 0.0 | 0.00 | 0.00 | 0.64 | 91 | 1006.2 |
| 20260903003028 | 16 | 224 | 0.0 | 0.0 | 0.00 | 0.00 | 0.61 | 92 | 1006.0 |
| 20260903002028 | 16 | 232 | 1.6 | 0.0 | 0.00 | 0.00 | 0.61 | 92 | 1006.1 |
| 20260903001026 | 15 | 239 | 0.0 | 0.0 | 0.00 | 0.00 | 0.61 | 92 | 1006.1 |
| 20260903000025 | 15 | 213 | 0.0 | 0.0 | 0.00 | 0.00 | 0.58 | 92 | 1006.0 |
| 20260902235025 | 15 | 211 | 0.0 | 0.0 | 0.00 | 0.00 | 0.58 | 92 | 1005.9 |
| 20260902234023 | 15 | 259 | 0.0 | 0.0 | 0.00 | 0.00 | 0.58 | 93 | 1006.0 |
| 20260902233022 | 15 | 257 | 8.0 | 0.0 | 0.00 | 0.00 | 0.58 | 92 | 1005.8 |
| 20260902232021 | 15 | 253 | 9.7 | 0.0 | 0.00 | 0.00 | 0.58 | 92 | 1005.9 |
| 20260902231020 | 15 | 253 | 0.0 | 0.0 | 0.00 | 0.00 | 0.58 | 92 | 1005.8 |
| 20260902230020 | 15 | 234 | 0.0 | 0.0 | 0.00 | 0.00 | 0.56 | 92 | 1005.7 |
| 20260902225018 | 15 | 223 | 4.8 | 0.0 | 0.00 | 0.00 | 0.53 | 91 | 1005.6 |
| 20260902223017 | 15 | 221 | 1.6 | 0.0 | 0.00 | 0.00 | 0.53 | 91 | 1005.6 |
| 20260902222016 | 15 | 242 | 0.0 | 0.0 | 0.00 | 0.00 | 0.53 | 91 | 1005.4 |
| 20260902221015 | 15 | 229 | 4.8 | 0.0 | 0.00 | 0.00 | 0.53 | 91 | 1005.4 |
| 20260902220014 | 15 | 213 | 0.0 | 0.0 | 0.00 | 0.00 | 0.53 | 92 | 1005.5 |
| 20260902215012 | 15 | 229 | 0.0 | 0.0 | 0.00 | 0.00 | 0.53 | 93 | 1005.3 |
| 20260902214011 | 15 | 229 | 3.2 | 0.0 | 0.00 | 0.00 | 0.53 | 92 | 1005.3 |
| 20260902212010 | 15 | 174 | 0.0 | 0.0 | 0.00 | 0.00 | 0.51 | 92 | 1005.4 |
| 20260902211009 | 15 | 186 | 0.0 | 0.0 | 0.00 | 0.00 | 0.51 | 92 | 1005.5 |
| 20260902210007 | 15 | 174 | 9.7 | 0.0 | 0.00 | 0.00 | 0.51 | 92 | 1005.4 |
| 20260902205006 | 15 | 193 | 0.0 | 0.0 | 0.00 | 0.00 | 0.51 | 92 | 1005.3 |
| 20260902204006 | 15 | 192 | 0.0 | 0.0 | 0.00 | 0.00 | 0.51 | 92 | 1005.1 |
| 20260902202003 | 15 | 167 | 0.0 | 0.0 | 0.00 | 0.00 | 0.51 | 92 | 1005.0 |
| 20260902201003 | 15 | 187 | 4.8 | 0.0 | 0.00 | 0.00 | 0.51 | 92 | 1005.0 |